Погода Пономарёво

Погода Пономарёво : погода сейчас, прогноз погоды и архив. Всё, что Вы хотите узнать о погоде Пономарёво!

Поиск расширенной информации на нашем сайте:

Другие новости

Новости СМИ2

Главная страница сайта

Новости сайта

03.07.2017

Напоминаем, что на нашем специализированном сайте Метеоцентр.Азия вы можете получить высокодетализированные автоматические прогнозы погоды по пунктам России, СНГ и мира в авиационном формате (включающие направление и скорость ветра, видимость, явления погоды, количество и форму облачности, нижнюю и верхнюю границу облачности).


Погода Пономарёво - сегодня

Время (UTC), дата Ветер
(°,м/с) 
Видим.   Явления Облачность Т
(°С)
Тd
(°С)
f(%) Тe
(°С)
Pmin
(гПа)
dP
(гПа)
Po
(мм)
O2
(г/м3)
Тmin Tmax R s Состояние
почвы
21 19.07.17 тихо ()   н/о  {ливн. осадки}  10/10 600 м кучево-дожд. 
[Cb cap]
+13.6 +13.2 97 +20  1009.8  0.1  719  273           
00 20.07.17 тихо ()   20000 м  {ливн. осадки}  10/10 600 м кучево-дожд. 
[Cb cap]
+14 +13.5 97 +21  1009.9  0.3  719  273  +13.6       
03 20.07.17 180 (Ю) 20000 м    9/9 600 м кучево-дожд., верхняя 
[Cb cap|Ci fib]
+16.6 +13 79 +24  1009.5  719  270           
06 20.07.17 250 (З) 20000 м    8/6 600 м кучево-дожд., средняя 
[Cb cap|Ac und]
+18.9 +12.1 65 +25  1009.8  0.7  719  269           
09 20.07.17 тихо ()   20000 м  в посл. час ливневой дождь  8/6 600 м кучево-дожд., средняя 
[Cb cap|Ac lent]
+15.8 +14 89 +24  1010.4  719  271           
12 20.07.17 тихо ()   20000 м  {ливн. осадки}  9/6 600 м кучево-дожд., средняя, верхняя 
[Cb cap|Ac und|Ci fib]
+18.1 +14.8 81 +28  1010.2  0.2  719  269    +21     
15 20.07.17 240 (ЮЗ) н/о  слаб. ливневой дождь, в посл. час гроза  10/10 600 м кучево-дожд. 
[Cb cap]
+15 +14.7 98 +25  1011.6  0.9  720  272           
18 20.07.17 тихо ()   н/о  {гроза, ливн. осадки}  8/8 600 м кучево-дожд. 
[Cb cap]
+13.2 +12.8 97 +19  1012.5  0.5  721  274           
21 20.07.17 тихо ()   н/о    10/10 600 м кучево-дожд. 
[Cb cap]
+13.4 +13.2 99 +20  1013.1  0.5  721  274           
00 21.07.17 тихо ()   20000 м    10/10 600 м кучево-дожд. 
[Cb cap]
+13.2 +13 99 +20  1014.4  1.3  722  275  +13.2    18     
03 21.07.17 150 (ЮВ) 20000 м    8/8 600 м кучево-дожд. 
[Cb cap]
+18.1 +15.6 85 +31  1013.8  0.3  722  269           
06 21.07.17 тихо ()   20000 м    8/8 600 м кучево-дожд. 
[Cb cap]
+21.7 +15 66 +31  1012.7  -0.4  722  266           
09 21.07.17 030 (СВ) 20000 м    8/8 600 м кучево-дожд. 
[Cb cap]
+24.8 +13.6 50 +32  1011.1  -1.1  721  264           
12 21.07.17 тихо ()   20000 м    9/4 600 м кучево-дожд., средняя, верхняя 
[Cb cap|Ac trans|Ci fib]
+21.7 +17 75 +35  1011.6  721  265    +25.2       
15 21.07.17 тихо ()   н/о    3/0 средняя 
[Ac trans]
+16.2 +15.2 94 +26  1013.2  0.5  721  271           
18 21.07.17 тихо ()   н/о    ясно 
+13.4 +12.9 97 +20  1014.7  722  275           
21 21.07.17 140 (ЮВ) н/о    ясно 
+12 +11.6 97 +17  1014.9  722  276           
00 22.07.17 тихо ()   20000 м    8/0 верхняя 
[Ci fib]
+13 +12.1 94 +18  1014.3  -0.4  722  275  +11.2         
03 22.07.17 230 (ЮЗ) 20000 м    9/3 1000 м верхняя 
[Cu med, cong|Ci fib]
+19.6 +13.5 68 +28  1013  -0.2  722  269           
06 22.07.17 230 (ЮЗ) 20000 м  в посл. час гроза  9/6 600 м кучево-дожд., верхняя 
[Cb cap|Ci fib]
+24 +16 61 +36  1011.3  -0.9  721  264           
09 22.07.17 210 (ЮЗ) 20000 м  гроза без осадков  8/8 600 м кучево-дожд. 
[Cb cap]
+24.2 +16.2 61 +36  1010.7  -0.5  721  263           
12 22.07.17 тихо ()   20000 м  гроза без осадков  9/8 600 м кучево-дожд., верхняя 
[Cb cap|Ci fib]
+20.6 +17.3 81 +35  1011.2  721  266    +25.2       
15 22.07.17 тихо ()   н/о  {гроза}  3/0 средняя 
[Ac trans]
+15.6 +15.3 98 +26  1012.2  721  271           
18 22.07.17 тихо ()   н/о  {гроза}  ясно 
+13.4 +13 97 +20  1012.4  -0.2  720  274           
21 22.07.17 110 (В) н/о    3/0 средняя 
[Ac trans]
+12.2 +11.8 97 +18  1012.6  720  276           
Время (UTC), дата Ветер
(°,м/с) 
Видим.   Явления Облачность Т
(°С)
Тd
(°С)
f(%) Тe
(°С)
Pmin
(гПа)
dP
(гПа)
Po
(мм)
O2
(г/м3)
Тmin Tmax R s Состояние
почвы

Для получения пояснительной информации подведите курсор к названию столбца.

ПОГОДА Пономарёво - архив

Всё, что Вы хотите узнать о погоде Пономарёво - удобно и подробно!

Выберите нужную дату (начиная с 1 января 2015* года) и нажмите кнопку "Найти".
Будут отображены архивные сводки погоды по пункту Пономарёво, начиная с указанной даты.


Отображать данные в формате CSV (для использования в таблицах Excel)


Внимание! Наш архив погоды предназначен исключительно для личного некоммерческого использования в познавательных целях. Если Вам необходимы официальные справки о состоянии погоды (для производственных, юридических, коммерческих и т.п. целей), обращайтесь в органы Росгидромета.

*Примечание: данная дата относится к архиву по метеостанциям СССР (Россия, СНГ, Балтия).
Архив по метеостанциям Зарубежной Европы и Азии (кроме Китая) хранится 10 дней, по другим регионам земного шара (Китай, Африка, Америка, Австралия, Океания) - 1 день.

Пономарёво - район местоположения метеостанции


Название, широта, долгота, высота метеостанции:
Пономарёво 53.7°ш. 94.2°д. 445 м над ур. моря [Российская Федерация]

Дополнительная информация

В oтличие oт бoльшинства пoгoдных сайтoв мы публикуем пoдрoбную метеoинфoрмацию в детальнoм прoфессиoнальнoм фoрмате.

Характеристики температуры и влажнoсти вoздуха измеряются на высoте 2 м в тени вдали oт зданий и деревьев.
Скoрoсть ветра измеряется на высoте 10 м (на урoвне рoста челoвека скoрoсть ветра ниже в 1.5-2 раза). Если метеoстанция нахoдится в гoрoде или в лесу, тo скoрoсть ветра занижена на 2-4 м/с пo сравнению с oткрытым местoм. Скoрoсть ветра над акватoриями крупных рек и oзёр, а также на вершинах хoлмoв на 2-5 м/с выше, чем в oбычных услoвиях.
Атмoсфернoе давление в разных тoчках местнoсти мoжет значительнo oтличаться oт давления на метеoстанции, в зависимoсти oт услoвий рельефа (при пoдъёме на 10 м давление пoнижается примернo на 1 мм рт.ст.).